This is the latest recevied weather packets stored in our database for station/object KD0SBN-3. If no packets are shown the sender has not sent any weather packets the latest 10 day(s).
| Time | Temp. | Humidity | Pressure | Rain* | Wind** | Luminosity | Snow |
|---|---|---|---|---|---|---|---|
| 1777855923 | 12.78° C | 28% | 1023.8 hPa | 0 mm | - | 45 W/m² | - |
| 1777855621 | 13.33° C | 27% | 1023.8 hPa | 0 mm | - | 41 W/m² | - |
| 1777855317 | 13.33° C | 27% | 1023.8 hPa | 0 mm | - | 48 W/m² | - |
| 1777855014 | 13.33° C | 27% | 1024 hPa | 0 mm | - | 56 W/m² | - |
| 1777854711 | 13.33° C | 27% | 1024.1 hPa | 0 mm | - | 58 W/m² | - |
| 1777854407 | 13.33° C | 26% | 1024 hPa | 0 mm | - | 54 W/m² | - |
| 1777854105 | 13.33° C | 26% | 1024 hPa | 0 mm | - | 52 W/m² | - |
| 1777853803 | 13.89° C | 26% | 1023.8 hPa | 0 mm | - | 47 W/m² | - |
| 1777853498 | 13.89° C | 25% | 1023.8 hPa | 0 mm | - | 53 W/m² | - |
| 1777853196 | 14.44° C | 24% | 1024.1 hPa | 0 mm | - | 72 W/m² | - |
| 1777852894 | 15° C | 22% | 1024 hPa | 0 mm | - | 90 W/m² | - |
| 1777852591 | 15° C | 23% | 1024 hPa | 0 mm | - | 108 W/m² | - |
| 1777852288 | 14.44° C | 24% | 1024 hPa | 0 mm | - | 102 W/m² | - |
| 1777851986 | 14.44° C | 23% | 1024.1 hPa | 0 mm | - | 100 W/m² | - |
| 1777851684 | 15° C | 20% | 1024.3 hPa | 0 mm | - | 112 W/m² | - |
| 1777851381 | 14.44° C | 21% | 1024.1 hPa | 0 mm | - | 110 W/m² | - |
| 1777851076 | 14.44° C | 23% | 1024 hPa | 0 mm | - | 108 W/m² | - |
| 1777850773 | 14.44° C | 21% | 1024 hPa | 0 mm | - | 121 W/m² | - |
| 1777850470 | 14.44° C | 21% | 1024.1 hPa | 0 mm | - | 115 W/m² | - |
| 1777850169 | 14.44° C | 21% | 1024.2 hPa | 0 mm | - | 105 W/m² | - |
| 1777849865 | 14.44° C | 22% | 1024.1 hPa | 0 mm | - | 117 W/m² | - |
| 1777849562 | 15° C | 21% | 1024.1 hPa | 0 mm | - | 121 W/m² | - |
| 1777849259 | 16.67° C | 20% | 1024.1 hPa | 0 mm | - | 116 W/m² | - |
| 1777848956 | 15° C | 20% | 1024.1 hPa | 0 mm | - | 119 W/m² | - |
| 1777848651 | 15.56° C | 20% | 1024.2 hPa | 0 mm | - | 141 W/m² | - |
* Rain latest hour (hover to see other rain measurements)
** Current wind speed in m/s (hover to see current wind gust speed)